User: anonymous   Login
Location: Unspecified
(0.0000°N, 0.0000°E)
Time: 23:27:43
(UTC+02:00)
Language:

Cosmos 1437 - Orbit

View from above orbital plane
View from above orbital plane
View from above satellite
View from above satellite

Ground track
Ground track

The orbit data is extracted from the following two-line orbital elements,

1 13770U 83003A   15245.96531909 +.00006389 +00000-0 +15249-3 0  9991
2 13770 081.1606 225.1381 0009229 041.2689 017.1916 15.41308439785256
Epoch (UTC): 02 September 2015 23:10:03
Eccentricity: 0.0009229
inclination: 81.1606°
perigee height: 436 km
apogee height: 448 km
right ascension of ascending node: 225.1381°
argument of perigee: 41.2689°
revolutions per day: 15.41308439
mean anomaly at epoch: 17.1916°
orbit number at epoch: 78525

The dashed part of the orbit path shows where the satellite is in the earth's shadow,  

DLR